Minneapolis Flying Cloud, MN

1:59 PM CDT on August 21, 2017 (GMT -0500)
Flying Cloud

Weather History for KFCM - September, 2014

Change the Weather History Date:

Friday, September 26, 2014

  Actual Average Record
Temperature  
Mean Temperature 68 °F -  
Max Temperature 82 °F 65 °F 86 °F (2008)
Min Temperature 57 °F 45 °F 37 °F (2001)
Cooling Degree Days 4    
Growing Degree Days 18 (Base 50)    
Moisture  
Dew Point 57 °F    
Average Humidity 68    
Maximum Humidity 93    
Minimum Humidity 47    
Precipitation  
Precipitation 0.00 in - - ()
Sea Level Pressure  
Sea Level Pressure 30.13 in    
Wind  
Wind Speed 6 mph (ESE)    
Max Wind Speed 15 mph    
Max Gust Speed -    
Visibility 10 miles    
Events      
Averages and records for this station are not official NWS values.
T = Trace of Precipitation, MM = Missing Value Source: NWS Daily Summary

Daily Weather History Graph

Daily Weather History Graph

Search for Another Location

Airport or City:

Trip Planner

Search our weather history database for the weather conditions in past years. The results will help you decide how hot, cold, wet, or windy it might be!

Date:

Astronomy

Sep. 26, 2014 Rise Set
Actual Time 7:05 AM CDT 7:03 PM CDT
Civil Twilight 6:36 AM CDT 7:32 PM CDT
Nautical Twilight 6:02 AM CDT 8:06 PM CDT
Astronomical Twilight 5:27 AM CDT 8:41 PM CDT
Moon 9:28 AM CDT (9/26) 8:16 PM CDT (9/26)
Length of Visible Light 12h 56m
Length of Day
11h 57m
Waxing Crescent, 6% of the Moon is Illuminated
Sep 26
Waxing Crescent
Oct 1
First Quarter
Oct 8
Full
Oct 15
Last Quarter
Oct 23
New

Hourly Weather History & Observations

Time (CDT) Temp. Heat Index Dew Point Humidity Pressure Visibility Wind Dir Wind Speed Gust Speed Precip Events Conditions
12:53 AM 61.0 °F - 55.9 °F 83% 30.15 in 10.0 mi Calm Calm - N/A   Clear
1:53 AM 59.0 °F - 57.0 °F 93% 30.15 in 10.0 mi Calm Calm - N/A   Clear
2:53 AM 59.0 °F - 55.9 °F 90% 30.15 in 10.0 mi East 4.6 mph - N/A   Mostly Cloudy
3:53 AM 59.0 °F - 55.9 °F 90% 30.15 in 10.0 mi ENE 3.5 mph - N/A   Mostly Cloudy
4:53 AM 60.1 °F - 57.0 °F 90% 30.15 in 10.0 mi ENE 3.5 mph - N/A   Overcast
5:53 AM 59.0 °F - 54.0 °F 83% 30.15 in 10.0 mi East 3.5 mph - N/A   Clear
6:53 AM 57.0 °F - 54.0 °F 89% 30.16 in 10.0 mi East 5.8 mph - N/A   Scattered Clouds
7:53 AM 59.0 °F - 55.0 °F 87% 30.17 in 10.0 mi East 4.6 mph - N/A   Overcast
8:53 AM 63.0 °F - 54.0 °F 72% 30.17 in 10.0 mi East 6.9 mph - N/A   Overcast
9:53 AM 66.0 °F - 55.9 °F 70% 30.17 in 10.0 mi East 4.6 mph - N/A   Overcast
10:53 AM 73.0 °F - 57.0 °F 57% 30.17 in 10.0 mi SE 9.2 mph - N/A   Clear
11:53 AM 75.9 °F - 57.0 °F 52% 30.16 in 10.0 mi SSE 13.8 mph - N/A   Clear
12:53 PM 79.0 °F - 57.0 °F 47% 30.15 in 10.0 mi SE 10.4 mph - N/A   Clear
1:53 PM 79.0 °F - 57.0 °F 47% 30.14 in 10.0 mi SSE 15.0 mph - N/A   Clear
2:53 PM 78.1 °F - 57.9 °F 50% 30.12 in 10.0 mi SE 12.7 mph - N/A   Scattered Clouds
3:53 PM 79.0 °F - 57.9 °F 48% 30.10 in 10.0 mi SE 15.0 mph - N/A   Partly Cloudy
4:53 PM 80.1 °F 80.6 °F 57.9 °F 47% 30.09 in 10.0 mi SSE 10.4 mph - N/A   Partly Cloudy
5:53 PM 78.1 °F - 59.0 °F 52% 30.08 in 10.0 mi SSE 12.7 mph - N/A   Partly Cloudy
6:53 PM 73.9 °F - 59.0 °F 59% 30.09 in 10.0 mi SE 10.4 mph - N/A   Clear
7:53 PM 73.9 °F - 59.0 °F 59% 30.09 in 10.0 mi ESE 9.2 mph - N/A   Mostly Cloudy
8:53 PM 72.0 °F - 59.0 °F 64% 30.10 in 10.0 mi ESE 10.4 mph - N/A   Clear
9:53 PM 70.0 °F - 59.0 °F 68% 30.10 in 10.0 mi ESE 10.4 mph - N/A   Partly Cloudy
10:53 PM 68.0 °F - 59.0 °F 73% 30.10 in 10.0 mi SE 10.4 mph - N/A   Clear
11:53 PM 68.0 °F - 59.0 °F 73% 30.10 in 10.0 mi SSE 4.6 mph - N/A   Scattered Clouds